Have a Safe July 4th! 

Flight Track Log - Related Links

Times and Time Zones

All times are in EDT time to prevent confusion due to time zone crossing. See the SWA2596 flight status page for this flight to view local times or setup timezone preferences in your user account.

Time Position Orientation Groundspeed Altitude Reporting Facility
EDT Latitude Longitude Course Direction KTS MPH feet Rate Location/Type
Fri 07:46:50 PM 32.7453 -117.2256 320° Northwest 172 198 1,600  Level Los Angeles Center
Fri 07:47:52 PM 32.7764 -117.2836 303° West 204 235 3,900 2,710 Climbing Los Angeles Center
Fri 07:48:54 PM 32.8153 -117.3564 302° West 253 291 7,200 2,952 Climbing Los Angeles Center
Fri 07:49:56 PM 32.8561 -117.4408 300° West 284 327 10,000 1,355 Climbing Los Angeles Center
Fri 07:50:58 PM 32.9314 -117.5322 314° West 321 369 10,000 1,355 Level Los Angeles Center
Fri 07:52:00 PM 33.1209 -117.7375 320° Northwest  Level FlightAware Approximate
Fri 07:52:00 PM 33.0092 -117.5917 327° Northwest 329 379 12,800  Level Los Angeles Center
Fri 07:53:02 PM 33.0758 -117.6756 313° West 351 404 14,700 2,226 Climbing Los Angeles Center
Fri 07:54:04 PM 33.1442 -117.7772 309° West 384 442 17,400 2,592 Climbing Los Angeles Center
Fri 07:55:07 PM 33.2064 -117.8886 304° West 398 458 20,100 2,448 Climbing Los Angeles Center
Fri 07:56:09 PM 33.3086 -117.9550 332° Northwest 420 483 22,500 2,419 Climbing Los Angeles Center
Fri 07:57:11 PM 33.4367 -118.0342 333° Northwest 430 495 25,100 2,129 Climbing Los Angeles Center
Fri 07:58:13 PM 33.5478 -118.1011 333° Northwest 444 511 26,900 2,032 Climbing Los Angeles Center
Fri 07:59:15 PM 33.6603 -118.1669 334° Northwest 452 520 29,300 2,226 Climbing Los Angeles Center
Fri 08:00:17 PM 33.7775 -118.2378 333° Northwest 449 517 31,500 2,129 Climbing Los Angeles Center
Fri 08:01:19 PM 33.8992 -118.3106 334° Northwest 449 517 33,700 1,742 Climbing Los Angeles Center
Fri 08:02:21 PM 33.9856 -118.3631 333° Northwest 443 510 35,100 1,548 Climbing Los Angeles Center
Fri 08:03:23 PM 34.1144 -118.4411 333° Northwest 435 501 36,900 1,597 Climbing Los Angeles Center
Fri 08:04:25 PM 34.2372 -118.5147 334° Northwest 437 503 38,400 1,314 Climbing Los Angeles Center
Fri 08:05:40 PM 34.3725 -118.5967 333° Northwest 432 497 39,900 701 Climbing Los Angeles Center
Fri 08:06:42 PM 34.4783 -118.6644 332° Northwest 430 495 40,000 48 Climbing Los Angeles Center
Fri 08:07:44 PM 34.5856 -118.7283 334° Northwest 431 496 40,000  Level Los Angeles Center
Fri 08:08:46 PM 34.6917 -118.7931 333° Northwest 428 493 40,000  Level Los Angeles Center
Fri 08:09:48 PM 34.7989 -118.8608 333° Northwest 433 498 40,000  Level Los Angeles Center
Fri 08:10:51 PM 34.9036 -118.9625 321° Northwest 424 488 40,000  Level Los Angeles Center
Fri 08:11:53 PM 35.0036 -119.0575 322° Northwest 425 489 40,000  Level Los Angeles Center
Fri 08:12:55 PM 35.0958 -119.1467 322° Northwest 426 490 40,000  Level Los Angeles Center
Fri 08:13:57 PM 35.1867 -119.2367 321° Northwest 424 488 40,000  Level Los Angeles Center
Fri 08:14:59 PM 35.2794 -119.3250 322° Northwest 424 488 40,000  Level Los Angeles Center
Fri 08:16:01 PM 35.3703 -119.4158 321° Northwest 425 489 40,000  Level Los Angeles Center
Fri 08:17:03 PM 35.4603 -119.5044 321° Northwest 420 483 40,000  Level Los Angeles Center
Fri 08:18:05 PM 35.5678 -119.6097 321° Northwest 416 479 40,000  Level Los Angeles Center
Fri 08:19:07 PM 35.6561 -119.6994 320° Northwest 415 478 40,000  Level Los Angeles Center
Fri 08:20:09 PM 35.7433 -119.7892 320° Northwest 412 474 40,000  Level Los Angeles Center
Fri 08:21:12 PM 35.8322 -119.8775 321° Northwest 414 476 40,000  Level Los Angeles Center
Fri 08:21:56 PM 35.9022 -119.9478 321° Northwest 415 478 40,000  Level Oakland Center
Fri 08:22:57 PM 35.9900 -120.0369 321° Northwest 413 475 40,000  Level Oakland Center
Fri 08:23:59 PM 36.0786 -120.1278 320° Northwest 415 478 40,000  Level Oakland Center
Fri 08:25:00 PM 36.1672 -120.2181 321° Northwest 415 478 40,000  Level Oakland Center
Fri 08:26:02 PM 36.2739 -120.3267 321° Northwest 415 478 40,000 -634 Level Oakland Center
Fri 08:27:03 PM 36.3619 -120.4147 321° Northwest 409 471 38,700 -1,854 Descending Oakland Center
Fri 08:28:05 PM 36.4475 -120.5053 320° Northwest 407 468 36,200 -2,683 Descending Oakland Center
Fri 08:29:06 PM 36.5336 -120.5939 320° Northwest 405 466 33,200 -3,122 Descending Oakland Center
Fri 08:30:08 PM 36.6231 -120.6822 322° Northwest 410 472 29,800 -2,878 Descending Oakland Center
Fri 08:31:09 PM 36.7097 -120.7744 320° Northwest 411 473 27,300 -2,439 Descending Oakland Center
Fri 08:32:11 PM 36.7903 -120.8681 317° Northwest 400 460 24,800 -2,634 Descending Oakland Center
Fri 08:33:12 PM 36.8861 -120.9764 318° Northwest 392 451 21,900 -2,537 Descending Oakland Center
Fri 08:34:14 PM 36.9619 -121.0622 318° Northwest 375 432 19,600 -2,293 Descending Oakland Center
Fri 08:35:15 PM 37.0389 -121.1525 317° Northwest 366 421 17,200 -2,361 Descending Oakland Center
Fri 08:36:16 PM 37.1103 -121.2350 317° Northwest 364 419 14,800 -2,293 Descending Oakland Center
Fri 08:37:18 PM 37.1822 -121.3172 318° Northwest 356 410 12,500 -2,098 Descending Oakland Center
Fri 08:38:19 PM 37.2511 -121.3983 317° Northwest 345 397 10,500 -1,220 Descending Oakland Center
Fri 08:39:21 PM 37.3133 -121.4714 317° Northwest 313 360 10,000 -683 Descending Oakland Center
Fri 08:40:22 PM 37.3706 -121.5367 318° Northwest 277 319 9,100 -968 Descending Oakland Center
Fri 08:40:54 PM 37.4000 -121.5833 308° West 269 310 8,500 -1,109 Descending Northern Cal TRACON
Fri 08:41:54 PM 37.4667 -121.6500 322° Northwest 270 311 7,400 -1,050 Descending Northern Cal TRACON
Fri 08:42:54 PM 37.5000 -121.7333 297° West 271 312 6,400 -700 Descending Northern Cal TRACON
Fri 08:43:54 PM 37.5167 -121.8167 284° West 256 295 6,000 -600 Descending Northern Cal TRACON
Fri 08:44:54 PM 37.5500 -121.8833 302° West 232 267 5,200 -1,000 Descending Northern Cal TRACON
Fri 08:45:54 PM 37.5667 -121.9667 284° West 245 282 4,000 -1,050 Descending Northern Cal TRACON
Fri 08:46:54 PM 37.6000 -122.0333 302° West 214 246 3,100 -850 Descending Northern Cal TRACON
Fri 08:47:54 PM 37.6167 -122.1000 288° West 187 215 2,300 -810 Descending Northern Cal TRACON
Fri 08:49:00 PM 37.6500 -122.1500 310° West 155 178 1,400 -750 Descending Northern Cal TRACON
Fri 08:49:54 PM 37.6833 -122.1833 322° Northwest 123 142 800 -632 Descending Northern Cal TRACON
Fri 08:50:54 PM 37.7000 -122.2000 322° Northwest 120 138 200 -600 Descending Northern Cal TRACON
Fri 08:53:00 PM 37.7167 -122.2167 270° West  Level FlightAware Approximate

Login

Don't have an account? Register now (free) for customized features, flight alerts, and more!